BBG698 LLBG-LGRP

Flight info

Callsign BBG698
Flight time 1h 18m
Altitude 32000
Route SUVAS N128 OTHON/N0419F240 N128 FOXLI
Aircraft B738/M-SDE2E3FGHIRWXY/LB1

Departure

Time 2026-05-01 12:32
Airport Ben Gurion International Airport (LLBG)

Arrival

Time 2026-05-01 13:50
Airport Rhodes International Airport "Diagoras" (LGRP)
Time Latitude Longitude Altitude Speed Heading
2026-05-01 12:01 32.00595 34.87352 119 ft 0 kts 182°
2026-05-01 12:16 32.00608 34.87352 119 ft 4 kts 162°
2026-05-01 12:16 32.00628 34.87335 117 ft 4 kts 124°
2026-05-01 12:17 32.00641 34.87315 114 ft 3 kts 135°
2026-05-01 12:17 32.00662 34.87300 119 ft 4 kts 174°
2026-05-01 12:17 32.00689 34.87300 115 ft 4 kts 182°
2026-05-01 12:17 32.00712 34.87299 115 ft 4 kts 164°
2026-05-01 12:18 32.00732 34.87285 114 ft 4 kts 117°
2026-05-01 12:18 32.00738 34.87256 119 ft 4 kts 82°
2026-05-01 12:18 32.00732 34.87226 115 ft 4 kts 73°
2026-05-01 12:18 32.00729 34.87210 118 ft 1 kts 77°
2026-05-01 12:26 32.00729 34.87211 119 ft 1 kts 77°
2026-05-01 12:27 32.00735 34.87240 118 ft 7 kts 75°
2026-05-01 12:27 32.00815 34.87414 119 ft 18 kts 100°
2026-05-01 12:28 32.00656 34.87731 118 ft 27 kts 121°
2026-05-01 12:28 32.00607 34.87924 119 ft 26 kts 50°
2026-05-01 12:28 32.00887 34.88137 118 ft 23 kts 32°
2026-05-01 12:29 32.01021 34.88232 116 ft 22 kts 31°
2026-05-01 12:29 32.01151 34.88325 118 ft 22 kts 31°
2026-05-01 12:29 32.01374 34.88541 115 ft 20 kts 53°
2026-05-01 12:30 32.01492 34.88829 116 ft 19 kts 77°
2026-05-01 12:30 32.01516 34.88979 118 ft 18 kts 79°
2026-05-01 12:30 32.01546 34.89123 117 ft 18 kts 58°
2026-05-01 12:31 32.01657 34.89149 116 ft 17 kts 349°
2026-05-01 12:31 32.01741 34.89075 117 ft 17 kts 274°
2026-05-01 12:31 32.01722 34.88934 119 ft 27 kts 259°
2026-05-01 12:31 32.01646 34.88433 119 ft 96 kts 259°
2026-05-01 12:32 32.01490 34.87414 120 ft 154 kts 261°
2026-05-01 12:32 32.01170 34.84616 1153 ft 182 kts 259°
2026-05-01 12:32 32.00807 34.83131 1805 ft 191 kts 255°
2026-05-01 12:33 32.00454 34.81621 2629 ft 195 kts 256°
2026-05-01 12:33 32.00114 34.80069 3364 ft 197 kts 256°
2026-05-01 12:33 31.99757 34.78419 3610 ft 219 kts 256°
2026-05-01 12:33 31.99367 34.76596 3821 ft 238 kts 256°
2026-05-01 12:34 31.99149 34.74601 4001 ft 258 kts 278°
2026-05-01 12:34 31.99594 34.72513 4523 ft 267 kts 285°
2026-05-01 12:34 32.00115 34.70407 5337 ft 267 kts 286°
2026-05-01 12:34 32.00640 34.68289 6050 ft 271 kts 285°
2026-05-01 12:35 32.01167 34.66144 6736 ft 275 kts 285°
2026-05-01 12:35 32.01698 34.63967 7455 ft 277 kts 285°
2026-05-01 12:35 32.02220 34.61800 8147 ft 280 kts 285°
2026-05-01 12:35 32.02761 34.59555 8824 ft 283 kts 285°
2026-05-01 12:36 32.03297 34.57308 9497 ft 286 kts 285°
2026-05-01 12:36 32.03830 34.55070 10179 ft 288 kts 285°
2026-05-01 12:36 32.04386 34.52727 10454 ft 307 kts 285°
2026-05-01 12:36 32.04978 34.50226 10620 ft 327 kts 285°
2026-05-01 12:37 32.05607 34.47565 10772 ft 347 kts 285°
2026-05-01 12:37 32.06270 34.44752 10952 ft 363 kts 285°
2026-05-01 12:37 32.06957 34.41842 11299 ft 373 kts 285°
2026-05-01 12:37 32.07655 34.38879 11824 ft 377 kts 285°
2026-05-01 12:38 32.08358 34.35894 12399 ft 379 kts 284°
2026-05-01 12:38 32.09063 34.32892 13004 ft 381 kts 284°
2026-05-01 12:38 32.09772 34.29874 13620 ft 383 kts 284°
2026-05-01 12:38 32.10483 34.26842 14204 ft 385 kts 284°
2026-05-01 12:39 32.11201 34.23776 14751 ft 389 kts 284°
2026-05-01 12:39 32.11921 34.20693 15359 ft 391 kts 284°
2026-05-01 12:39 32.12645 34.17594 15975 ft 392 kts 284°
2026-05-01 12:39 32.13372 34.14481 16513 ft 396 kts 284°
2026-05-01 12:40 32.14104 34.11339 17036 ft 399 kts 284°
2026-05-01 12:40 32.14840 34.08178 17566 ft 401 kts 284°
2026-05-01 12:40 32.15580 34.04992 18084 ft 404 kts 284°
2026-05-01 12:40 32.16336 34.01793 18592 ft 406 kts 286°
2026-05-01 12:41 32.17400 33.98685 19038 ft 411 kts 295°
2026-05-01 12:41 32.18892 33.95801 19544 ft 414 kts 303°
2026-05-01 12:41 32.20575 33.93030 20012 ft 416 kts 304°
2026-05-01 12:41 32.22278 33.90256 20477 ft 419 kts 304°
2026-05-01 12:42 32.23990 33.87462 20910 ft 421 kts 304°
2026-05-01 12:42 32.25710 33.84645 21318 ft 424 kts 304°
2026-05-01 12:42 32.27411 33.81844 21732 ft 426 kts 304°
2026-05-01 12:42 32.29158 33.78954 22132 ft 428 kts 304°
2026-05-01 12:43 32.30890 33.76078 22474 ft 431 kts 304°
2026-05-01 12:43 32.32606 33.73222 22843 ft 433 kts 304°
2026-05-01 12:43 32.34350 33.70317 23196 ft 434 kts 304°
2026-05-01 12:43 32.36101 33.67394 23532 ft 437 kts 303°
2026-05-01 12:44 32.37860 33.64455 23866 ft 438 kts 303°
2026-05-01 12:44 32.39626 33.61502 24171 ft 441 kts 303°
2026-05-01 12:44 32.43180 33.55554 24791 ft 444 kts 303°
2026-05-01 12:45 32.46754 33.49564 25402 ft 447 kts 303°
2026-05-01 12:45 32.48554 33.46544 25681 ft 449 kts 303°
2026-05-01 12:45 32.50355 33.43520 25952 ft 451 kts 303°
2026-05-01 12:46 32.52166 33.40477 26236 ft 452 kts 303°
2026-05-01 12:46 32.53981 33.37425 26510 ft 454 kts 303°
2026-05-01 12:46 32.55798 33.34367 26776 ft 455 kts 303°
2026-05-01 12:46 32.57622 33.31294 27013 ft 456 kts 303°
2026-05-01 12:47 32.59454 33.28207 27239 ft 458 kts 303°
2026-05-01 12:47 32.61286 33.25114 27515 ft 459 kts 303°
2026-05-01 12:47 32.63116 33.22026 27866 ft 457 kts 303°
2026-05-01 12:47 32.64941 33.18942 28257 ft 455 kts 303°
2026-05-01 12:48 32.66754 33.15875 28650 ft 453 kts 303°
2026-05-01 12:48 32.68559 33.12820 28992 ft 452 kts 303°
2026-05-01 12:48 32.70362 33.09767 29314 ft 451 kts 303°
2026-05-01 12:48 32.72161 33.06716 29688 ft 450 kts 303°
2026-05-01 12:49 32.73951 33.03679 30075 ft 448 kts 303°
2026-05-01 12:49 32.75733 33.00653 30426 ft 446 kts 303°
2026-05-01 12:49 32.77511 32.97632 30733 ft 446 kts 303°
2026-05-01 12:49 32.79287 32.94610 31064 ft 445 kts 303°
2026-05-01 12:50 32.81051 32.91604 31373 ft 444 kts 303°
2026-05-01 12:50 32.82816 32.88597 31685 ft 443 kts 303°
2026-05-01 12:50 32.84574 32.85599 31979 ft 442 kts 303°
2026-05-01 12:50 32.86332 32.82600 32288 ft 441 kts 303°
2026-05-01 12:51 32.88081 32.79612 32603 ft 440 kts 303°
2026-05-01 12:51 32.89826 32.76631 32923 ft 438 kts 303°
2026-05-01 12:51 32.93294 32.70696 33473 ft 436 kts 303°
2026-05-01 12:52 32.95024 32.67732 33723 ft 436 kts 303°
2026-05-01 12:52 32.98466 32.61825 34253 ft 433 kts 303°
2026-05-01 12:52 33.00162 32.58913 34479 ft 433 kts 303°
2026-05-01 12:53 33.03614 32.52977 34934 ft 432 kts 303°
2026-05-01 12:53 33.05324 32.50035 35187 ft 431 kts 303°
2026-05-01 12:53 33.07024 32.47105 35460 ft 429 kts 303°
2026-05-01 12:54 33.08700 32.44217 35670 ft 429 kts 303°
2026-05-01 12:54 33.12089 32.38366 35973 ft 430 kts 303°
2026-05-01 12:54 33.13793 32.35420 35964 ft 432 kts 303°
2026-05-01 12:55 33.18874 32.26627 35968 ft 426 kts 303°
2026-05-01 12:56 33.22222 32.20819 35978 ft 424 kts 303°
2026-05-01 12:56 33.25551 32.15033 35981 ft 422 kts 303°
2026-05-01 12:57 33.28871 32.09256 35980 ft 421 kts 303°
2026-05-01 12:57 33.33842 32.00591 35985 ft 422 kts 303°
2026-05-01 12:58 33.37163 31.94787 35989 ft 424 kts 303°
2026-05-01 12:59 33.42165 31.86032 35982 ft 426 kts 303°
2026-05-01 12:59 33.46602 31.78250 35980 ft 427 kts 303°
2026-05-01 13:00 33.51273 31.70049 35980 ft 428 kts 303°
2026-05-01 13:01 33.55737 31.62193 35983 ft 428 kts 303°
2026-05-01 13:02 33.60757 31.53338 35979 ft 428 kts 303°
2026-05-01 13:07 33.97154 30.88471 35972 ft 426 kts 302°
2026-05-01 13:08 34.00447 30.82540 35974 ft 426 kts 302°
2026-05-01 13:08 34.03738 30.76601 35975 ft 426 kts 302°
2026-05-01 13:09 34.07026 30.70656 35971 ft 427 kts 302°
2026-05-01 13:09 34.10317 30.64698 35973 ft 427 kts 302°
2026-05-01 13:10 34.13604 30.58738 35972 ft 427 kts 302°
2026-05-01 13:10 34.16887 30.52775 35974 ft 426 kts 302°
2026-05-01 13:11 34.20167 30.46808 35974 ft 426 kts 302°
2026-05-01 13:11 34.23442 30.40839 35971 ft 426 kts 302°
2026-05-01 13:12 34.26711 30.34870 35972 ft 426 kts 302°
2026-05-01 13:12 34.29973 30.28903 35974 ft 426 kts 302°
2026-05-01 13:13 34.33238 30.22923 35963 ft 426 kts 302°
2026-05-01 13:13 34.36497 30.16943 35954 ft 426 kts 302°
2026-05-01 13:14 34.39751 30.10962 35953 ft 425 kts 302°
2026-05-01 13:14 34.43003 30.04976 35954 ft 425 kts 302°
2026-05-01 13:15 34.46350 29.99128 35946 ft 427 kts 309°
2026-05-01 13:15 34.50507 29.93976 35947 ft 427 kts 313°
2026-05-01 13:16 34.54702 29.88879 35958 ft 427 kts 312°
2026-05-01 13:16 34.58882 29.83746 35954 ft 427 kts 312°
2026-05-01 13:17 34.67202 29.73447 35948 ft 427 kts 312°
2026-05-01 13:18 34.73448 29.65691 35946 ft 428 kts 312°
2026-05-01 13:18 34.77608 29.60518 35942 ft 428 kts 311°
2026-05-01 13:19 34.81765 29.55338 35947 ft 428 kts 311°
2026-05-01 13:20 34.87997 29.47559 35944 ft 427 kts 311°
2026-05-01 13:20 34.90088 29.44943 35146 ft 441 kts 311°
2026-05-01 13:20 34.92212 29.42282 34322 ft 444 kts 311°
2026-05-01 13:21 34.96497 29.36920 33016 ft 439 kts 311°
2026-05-01 13:21 34.98623 29.34261 32399 ft 437 kts 313°
2026-05-01 13:21 35.00892 29.31776 31634 ft 441 kts 319°
2026-05-01 13:21 35.03341 29.29517 30898 ft 442 kts 321°
2026-05-01 13:22 35.05816 29.27310 30379 ft 438 kts 321°
2026-05-01 13:22 35.08265 29.25135 29847 ft 433 kts 321°
2026-05-01 13:22 35.10683 29.22977 29358 ft 428 kts 321°
2026-05-01 13:22 35.13057 29.20841 29091 ft 418 kts 320°
2026-05-01 13:23 35.15365 29.18751 28827 ft 412 kts 320°
2026-05-01 13:23 35.17680 29.16639 28601 ft 420 kts 320°
2026-05-01 13:23 35.20035 29.14482 28360 ft 427 kts 320°
2026-05-01 13:23 35.22410 29.12302 28109 ft 426 kts 320°
2026-05-01 13:24 35.24769 29.10137 27849 ft 422 kts 320°
2026-05-01 13:24 35.27107 29.07991 27597 ft 419 kts 320°
2026-05-01 13:24 35.29433 29.05857 27344 ft 416 kts 320°
2026-05-01 13:25 35.34039 29.01625 26843 ft 413 kts 320°
2026-05-01 13:25 35.36336 28.99511 26601 ft 412 kts 320°
2026-05-01 13:25 35.38625 28.97403 26347 ft 411 kts 320°
2026-05-01 13:25 35.40908 28.95298 26098 ft 411 kts 320°
2026-05-01 13:26 35.43198 28.93187 25850 ft 411 kts 320°
2026-05-01 13:26 35.45478 28.91081 25601 ft 411 kts 320°
2026-05-01 13:26 35.47767 28.88967 25347 ft 411 kts 320°
2026-05-01 13:26 35.50048 28.86858 25104 ft 410 kts 320°
2026-05-01 13:27 35.52300 28.84776 24987 ft 400 kts 320°
2026-05-01 13:27 35.54482 28.82761 24967 ft 385 kts 320°
2026-05-01 13:27 35.58597 28.78955 24951 ft 356 kts 320°
2026-05-01 13:28 35.62392 28.75436 24954 ft 328 kts 320°
2026-05-01 13:28 35.64176 28.73780 24944 ft 316 kts 319°
2026-05-01 13:29 35.67521 28.70672 24939 ft 290 kts 319°
2026-05-01 13:29 35.70650 28.67757 24970 ft 286 kts 319°
2026-05-01 13:30 35.77259 28.61586 24954 ft 298 kts 319°
2026-05-01 13:31 35.80544 28.58522 24955 ft 294 kts 319°
2026-05-01 13:31 35.85400 28.53982 24956 ft 290 kts 319°
2026-05-01 13:32 35.88612 28.50976 24967 ft 290 kts 319°
2026-05-01 13:33 35.93508 28.46552 24472 ft 291 kts 321°
2026-05-01 13:33 35.96912 28.43747 23604 ft 298 kts 323°
2026-05-01 13:34 36.00553 28.40802 21670 ft 337 kts 323°
2026-05-01 13:34 36.04558 28.37511 20374 ft 351 kts 323°
2026-05-01 13:35 36.08489 28.34269 20146 ft 330 kts 323°
2026-05-01 13:35 36.10371 28.32723 20069 ft 320 kts 323°
2026-05-01 13:35 36.14006 28.29742 19579 ft 311 kts 323°
2026-05-01 13:36 36.15811 28.28262 19210 ft 311 kts 323°
2026-05-01 13:36 36.17613 28.26784 18881 ft 310 kts 323°
2026-05-01 13:36 36.21249 28.23790 17816 ft 316 kts 323°
2026-05-01 13:37 36.23071 28.22282 17261 ft 317 kts 323°
2026-05-01 13:37 36.24898 28.20762 16714 ft 316 kts 323°
2026-05-01 13:37 36.26723 28.19240 16172 ft 316 kts 323°
2026-05-01 13:37 36.28537 28.17721 15630 ft 315 kts 323°
2026-05-01 13:38 36.32166 28.14667 14524 ft 315 kts 323°
2026-05-01 13:38 36.33971 28.13136 13975 ft 314 kts 323°
2026-05-01 13:38 36.35767 28.11610 13431 ft 312 kts 323°
2026-05-01 13:39 36.37554 28.10084 12960 ft 310 kts 323°
2026-05-01 13:39 36.39291 28.08600 12719 ft 299 kts 323°
2026-05-01 13:39 36.41005 28.07133 12083 ft 303 kts 323°
2026-05-01 13:39 36.42756 28.05626 11305 ft 310 kts 323°
2026-05-01 13:40 36.44547 28.04076 10524 ft 316 kts 323°
2026-05-01 13:40 36.46507 28.02792 9818 ft 322 kts 343°
2026-05-01 13:40 36.48696 28.02611 9548 ft 314 kts
2026-05-01 13:40 36.50684 28.03520 9280 ft 307 kts 32°
2026-05-01 13:41 36.52169 28.05342 9013 ft 300 kts 58°
2026-05-01 13:41 36.52963 28.07687 8769 ft 291 kts 73°
2026-05-01 13:41 36.53504 28.10082 8514 ft 284 kts 75°
2026-05-01 13:41 36.54003 28.12435 8274 ft 280 kts 75°
2026-05-01 13:42 36.54490 28.14783 8010 ft 280 kts 75°
2026-05-01 13:42 36.54978 28.17141 7590 ft 286 kts 75°
2026-05-01 13:42 36.55476 28.19551 7101 ft 288 kts 75°
2026-05-01 13:42 36.55975 28.21965 6608 ft 288 kts 75°
2026-05-01 13:43 36.56472 28.24380 6090 ft 289 kts 75°
2026-05-01 13:43 36.56962 28.26803 5599 ft 289 kts 78°
2026-05-01 13:43 36.56971 28.29270 5087 ft 286 kts 105°
2026-05-01 13:43 36.56151 28.31448 4866 ft 272 kts 123°
2026-05-01 13:44 36.55133 28.33356 4677 ft 259 kts 124°
2026-05-01 13:44 36.54135 28.35166 4543 ft 247 kts 125°
2026-05-01 13:44 36.53055 28.36726 4407 ft 232 kts 147°
2026-05-01 13:44 36.51610 28.37360 4244 ft 216 kts 181°
2026-05-01 13:45 36.50179 28.36974 3898 ft 210 kts 205°
2026-05-01 13:45 36.48881 28.36242 3791 ft 202 kts 206°
2026-05-01 13:45 36.47758 28.35203 3675 ft 206 kts 240°
2026-05-01 13:45 36.47339 28.33498 3520 ft 211 kts 258°
2026-05-01 13:46 36.46952 28.31731 3278 ft 211 kts 252°
2026-05-01 13:46 36.46532 28.30018 3037 ft 204 kts 255°
2026-05-01 13:46 36.46149 28.28346 2828 ft 197 kts 254°
2026-05-01 13:46 36.45742 28.26745 2630 ft 191 kts 252°
2026-05-01 13:47 36.45465 28.25721 2491 ft 187 kts 252°
2026-05-01 13:47 36.45046 28.24217 2278 ft 179 kts 251°
2026-05-01 13:47 36.44645 28.22809 2076 ft 167 kts 251°
2026-05-01 13:47 36.44292 28.21481 1883 ft 159 kts 252°
2026-05-01 13:48 36.43931 28.20200 1693 ft 156 kts 251°
2026-05-01 13:48 36.43562 28.18937 1469 ft 158 kts 251°
2026-05-01 13:48 36.43189 28.17667 1277 ft 156 kts 250°
2026-05-01 13:48 36.42816 28.16399 1079 ft 155 kts 250°
2026-05-01 13:49 36.42451 28.15164 847 ft 151 kts 250°
2026-05-01 13:49 36.42087 28.13950 667 ft 149 kts 251°
2026-05-01 13:49 36.41738 28.12721 488 ft 153 kts 251°
2026-05-01 13:49 36.41377 28.11476 271 ft 153 kts 250°
2026-05-01 13:50 36.41017 28.10249 60 ft 150 kts 250°
2026-05-01 13:50 36.40683 28.09108 30 ft 125 kts 250°
2026-05-01 13:50 36.40460 28.08351 27 ft 53 kts 250°
2026-05-01 13:50 36.40344 28.08040 28 ft 32 kts 231°
2026-05-01 13:51 36.40201 28.07871 27 ft 24 kts 214°
2026-05-01 13:51 36.40152 28.07928 27 ft 12 kts 69°
2026-05-01 13:51 36.40181 28.08025 27 ft 12 kts 71°
2026-05-01 13:51 36.40209 28.08121 27 ft 12 kts 69°
2026-05-01 13:52 36.40236 28.08214 27 ft 11 kts 70°
2026-05-01 13:52 36.40266 28.08312 27 ft 14 kts 70°
2026-05-01 13:52 36.40308 28.08456 27 ft 21 kts 70°
2026-05-01 13:52 36.40367 28.08652 27 ft 26 kts 70°
2026-05-01 13:53 36.40399 28.08863 27 ft 24 kts 93°
2026-05-01 13:53 36.40466 28.09240 27 ft 13 kts 85°
2026-05-01 13:53 36.40423 28.09285 27 ft 8 kts 160°
2026-05-01 13:54 36.40409 28.09291 27 ft 0 kts 160°